FW8434 Weather Reports


Display with metric or nautical units.
time (UTC)temp
F
wind
direction
speed
MPH
gust
MPH
rain 1hr
in
rain 24hr
in
rain mn
in
humidity
%
barometer
mb
20260507134531 49 259 0.0 1.0 0.00 0.00 0.00 84 1018.9
20260507133030 49 0 0.0 1.0 0.00 0.00 0.00 85 1018.8
20260507131536 49 0 0.0 1.0 0.00 0.00 0.00 86 1018.7
20260507130028 49 262 0.0 0.0 0.00 0.00 0.00 85 1018.9
20260507124532 49 0 0.0 1.0 0.00 0.00 0.00 84 1018.8
20260507123029 49 220 0.0 2.0 0.00 0.00 0.00 84 1018.9
20260507121530 50 303 1.0 4.0 0.00 0.00 0.00 83 1019.0
20260507120027 50 0 0.0 4.0 0.00 0.00 0.00 83 1019.1
20260507114529 50 0 0.0 4.0 0.00 0.00 0.00 83 1019.1
20260507113029 50 0 0.0 4.0 0.00 0.00 0.00 84 1019.2
20260507111528 50 285 0.0 1.0 0.00 0.00 0.00 84 1019.1
20260507110029 51 0 0.0 2.0 0.00 0.00 0.00 85 1019.2
20260507104534 51 293 0.0 3.0 0.00 0.00 0.00 85 1019.2
20260507103028 51 250 1.0 3.0 0.00 0.00 0.00 86 1019.2
20260507101549 51 0 0.0 1.0 0.00 0.00 0.00 86 1019.4
20260507100034 51 0 0.0 2.0 0.00 0.00 0.00 86 1019.5
20260507094529 52 290 0.0 2.0 0.00 0.00 0.00 85 1019.5
20260507093032 52 258 0.0 3.0 0.00 0.00 0.00 85 1019.6
20260507091548 52 253 0.0 2.0 0.00 0.00 0.00 84 1019.7
20260507090027 52 283 0.0 1.0 0.00 0.00 0.00 85 1019.8
20260507084530 52 300 0.0 2.0 0.00 0.00 0.00 85 1019.8
20260507083028 52 0 0.0 3.0 0.00 0.00 0.00 85 1019.9
20260507081540 52 323 0.0 2.0 0.00 0.00 0.00 85 1019.9
20260507080030 52 292 0.0 4.0 0.00 0.00 0.00 85 1019.9
20260507074531 52 307 0.0 2.0 0.00 0.00 0.00 85 1019.8
20260507073030 52 0 0.0 1.0 0.00 0.00 0.00 85 1019.7
20260507071528 53 274 0.0 2.0 0.00 0.00 0.00 84 1019.7
20260507070028 53 0 0.0 1.0 0.00 0.00 0.00 84 1019.6
20260507064529 53 0 0.0 2.0 0.00 0.00 0.00 85 1019.7
20260507063030 53 0 0.0 2.0 0.00 0.00 0.00 84 1019.7
20260507061532 53 274 1.0 4.0 0.00 0.00 0.00 84 1019.6
20260507060032 54 232 0.0 2.0 0.00 0.00 0.00 84 1019.7
20260507054527 54 308 0.0 4.0 0.00 0.00 0.00 83 1019.6
20260507053028 54 272 0.0 3.0 0.00 0.00 0.00 84 1019.6
20260507051528 54 0 0.0 1.0 0.00 0.00 0.00 83 1019.6
20260507050034 55 283 0.0 5.0 0.00 0.00 0.00 83 1019.7
20260507044541 55 265 2.0 6.0 0.00 0.00 0.00 82 1019.6
20260507043034 56 302 1.0 7.0 0.00 0.00 0.00 82 1019.6
20260507041530 56 280 0.0 9.0 0.00 0.00 0.00 82 1019.3
20260507040030 57 0 0.0 3.0 0.00 0.00 0.00 83 1019.1
20260507034532 57 350 1.0 3.0 0.00 0.00 0.00 84 1018.9
20260507033028 57 0 0.0 3.0 0.00 0.00 0.00 84 1018.7
20260507031530 58 0 0.0 3.0 0.00 0.00 0.00 83 1018.5
20260507030029 58 0 0.0 3.0 0.00 0.00 0.00 82 1018.4
20260507024530 59 0 1.0 3.0 0.00 0.00 0.00 80 1018.3
20260507023029 61 0 0.0 4.0 0.00 0.00 0.00 78 1018.3
20260507021530 62 271 1.0 4.0 0.00 0.00 0.00 77 1018.3
20260507020033 62 321 0.0 5.0 0.00 0.00 0.00 76 1018.4
20260507014528 63 311 2.0 4.0 0.00 0.00 0.00 77 1018.5
20260507013028 64 290 1.0 4.0 0.00 0.00 0.00 76 1018.3
20260507011531 66 0 0.0 1.0 0.00 0.00 0.00 76 1018.3
20260507010029 65 274 0.0 2.0 0.00 0.00 0.00 74 1018.4
20260507004527 66 0 0.0 1.0 0.00 0.00 0.00 76 1018.3
20260507003028 66 287 0.0 3.0 0.00 0.00 0.00 72 1018.4
20260507001531 66 301 0.0 3.0 0.00 0.00 0.00 75 1018.2
20260507000029 67 0 0.0 3.0 0.00 0.00 0.00 73 1018.3
20260506234530 68 274 1.0 4.0 0.00 0.00 0.00 69 1018.2
20260506233030 68 0 0.0 4.0 0.00 0.00 0.00 69 1018.3
20260506231529 66 0 0.0 5.0 0.00 0.00 0.00 75 1018.4
20260506230027 67 0 0.0 3.0 0.00 0.00 0.00 69 1018.5
20260506224530 66 0 0.0 3.0 0.00 0.00 0.00 73 1018.6
20260506223031 67 139 0.0 1.0 0.00 0.00 0.00 71 1018.8
20260506221531 67 223 0.0 2.0 0.00 0.00 0.00 74 1018.9
20260506220035 66 303 1.0 4.0 0.00 0.00 0.00 74 1018.9
20260506214530 65 148 0.0 3.0 0.00 0.00 0.00 77 1019.0
20260506213028 64 0 0.0 3.0 0.00 0.00 0.00 79 1019.2
20260506211527 63 307 1.0 4.0 0.00 0.00 0.00 77 1019.4
20260506210029 64 260 1.0 3.0 0.00 0.00 0.00 79 1019.4
20260506204528 64 221 0.0 2.0 0.00 0.00 0.00 79 1019.4
20260506203030 64 115 0.0 3.0 0.00 0.00 0.00 76 1019.3
20260506201541 63 0 0.0 4.0 0.00 0.00 0.00 80 1019.4
20260506200028 61 245 0.0 3.0 0.00 0.00 0.00 81 1019.4
20260506194534 60 283 0.0 2.0 0.00 0.00 0.00 83 1019.6
20260506193030 60 0 0.0 2.0 0.00 0.00 0.00 82 1019.7
20260506191528 61 203 0.0 1.0 0.00 0.00 0.00 82 1019.6
20260506190029 60 146 0.0 2.0 0.00 0.00 0.00 84 1019.6
20260506184531 60 148 0.0 1.0 0.00 0.00 0.00 83 1019.6
20260506183028 60 253 1.0 3.0 0.00 0.00 0.00 83 1019.6
20260506181530 60 261 0.0 2.0 0.00 0.00 0.00 84 1019.5
20260506180028 59 359 0.0 2.0 0.00 0.00 0.00 84 1019.4
20260506174529 59 0 0.0 2.0 0.00 0.00 0.00 83 1019.3
20260506173029 59 0 0.0 1.0 0.00 0.00 0.00 86 1019.2
20260506171539 58 0 0.0 2.0 0.00 0.00 0.00 86 1019.1
20260506170030 57 0 1.0 3.0 0.00 0.00 0.00 86 1019.1
20260506164527 58 222 0.0 3.0 0.00 0.00 0.00 86 1019.0
20260506163038 58 288 0.0 3.0 0.00 0.00 0.00 86 1018.9
20260506161533 59 0 0.0 2.0 0.00 0.00 0.00 84 1018.8
20260506160030 57 0 0.0 1.0 0.00 0.00 0.00 90 1018.6
20260506154537 55 0 0.0 2.0 0.00 0.00 0.00 91 1018.9
20260506153029 55 0 0.0 3.0 0.00 0.00 0.00 91 1019.3
20260506151527 55 0 0.0 2.0 0.00 0.00 0.00 92 1019.2
20260506150031 55 251 0.0 3.0 0.00 0.00 0.00 91 1018.9
20260506144529 55 0 0.0 2.0 0.00 0.00 0.00 91 1018.7
20260506143030 55 283 0.0 2.0 0.00 0.00 0.00 91 1018.3
20260506141527 55 0 0.0 1.0 0.00 0.00 0.00 92 1018.4
20260506140030 54 0 0.0 0.0 0.00 0.00 0.00 92 1018.3